, AK

(GMT )
Deadhorse

Weather History for PASC - February, 2014

Change the Weather History Date:

Thursday, February 13, 2014

  Actual Average Record
Temperature  
Mean Temperature -29 °F -  
Max Temperature -25 °F -9 °F 34 °F (1989)
Min Temperature -33 °F -19 °F -47 °F (1987)
Degree Days  
Heating Degree Days 94    
Moisture  
Dew Point -33 °F    
Average Humidity 73    
Maximum Humidity 77    
Minimum Humidity 69    
Precipitation  
Precipitation 0.00 in - - ()
Sea Level Pressure  
Sea Level Pressure 30.01 in    
Wind  
Wind Speed 10 mph (NE)    
Max Wind Speed 13 mph    
Max Gust Speed -    
Visibility 8 miles    
Events      
Averages and records for this station are not official NWS values.
T = Trace of Precipitation, MM = Missing Value Source: NWS Daily Summary

Daily Weather History Graph

Daily Weather History Graph

Search for Another Location

Airport or City:

Trip Planner

Search our weather history database for the weather conditions in past years. The results will help you decide how hot, cold, wet, or windy it might be!

Date:

Astronomy

Feb. 13, 2014 Rise Set
Actual Time 9:37 AM AKST 4:40 PM AKST
Civil Twilight 8:26 AM AKST 5:51 PM AKST
Nautical Twilight 7:13 AM AKST 7:04 PM AKST
Astronomical Twilight 6:02 AM AKST 8:16 PM AKST
Moon 4:01 PM AKST (2/13) 8:40 AM AKST (2/13)
Length of Visible Light 9h 25m
Length of Day
7h 02m
Waxing Gibbous, 99% of the Moon is Illuminated
Feb 13
Waxing Gibbous
Feb 14
Full
Feb 22
Last Quarter
Feb 28
New
Mar 8
First Quarter

Hourly Weather History & Observations

Time (AKST) Temp. Windchill Dew Point Humidity Pressure Visibility Wind Dir Wind Speed Gust Speed Precip Events Conditions
12:53 AM -33.0 °F -55.9 °F -38.2 °F 76% 30.01 in 10.0 mi ENE 9.2 mph - N/A   Clear
1:53 AM -27.9 °F -52.1 °F -34.1 °F 73% 30.02 in 5.0 mi NE 11.5 mph - N/A   Mostly Cloudy
2:53 AM -27.9 °F -50.9 °F -34.1 °F 73% 30.01 in 8.0 mi NE 10.4 mph - N/A   Mostly Cloudy
3:53 AM -27.9 °F -53.2 °F -34.1 °F 73% 30.01 in 10.0 mi NE 12.7 mph - N/A   Partly Cloudy
4:53 AM -27.9 °F -52.1 °F -34.1 °F 73% 30.01 in 10.0 mi NE 11.5 mph - N/A   Mostly Cloudy
5:53 AM -27.9 °F -50.9 °F -33.0 °F 77% 30.01 in 10.0 mi NE 10.4 mph - N/A   Mostly Cloudy
6:53 AM -27.9 °F -48.2 °F -34.1 °F 73% 30.01 in 10.0 mi NE 8.1 mph - N/A   Overcast
7:53 AM -27.0 °F -47.1 °F -33.0 °F 73% 30.01 in 7.0 mi NE 8.1 mph - N/A   Overcast
8:53 AM -26.0 °F -47.2 °F -32.1 °F 73% 30.01 in 7.0 mi NNE 9.2 mph - N/A   Overcast
9:53 AM -26.0 °F -45.8 °F -32.1 °F 73% 30.00 in 8.0 mi NE 8.1 mph - N/A   Mostly Cloudy
10:53 AM -27.0 °F -47.1 °F -33.0 °F 73% 30.01 in 9.0 mi NE 8.1 mph - N/A   Clear
11:53 AM -26.0 °F -47.2 °F -32.1 °F 73% 30.01 in 9.0 mi NE 9.2 mph - N/A   Clear
12:53 PM -27.0 °F -49.8 °F -33.0 °F 73% 30.01 in 9.0 mi NE 10.4 mph - N/A   Clear
1:53 PM -27.0 °F -48.5 °F -33.0 °F 73% 30.00 in 9.0 mi NE 9.2 mph - N/A   Clear
2:53 PM -26.0 °F -48.5 °F -32.1 °F 73% 30.00 in 10.0 mi NE 10.4 mph - N/A   Mostly Cloudy
3:53 PM -26.0 °F -44.2 °F -32.1 °F 73% 30.00 in 9.0 mi ENE 6.9 mph - N/A   Mostly Cloudy
4:06 PM -25.6 °F -45.4 °F -32.8 °F 69% 29.99 in 3.0 mi NE 8.1 mph - N/A   Haze
4:13 PM -25.6 °F -45.4 °F -31.0 °F 76% 29.99 in 3.0 mi NE 8.1 mph - N/A   Haze
4:53 PM -25.1 °F -46.1 °F -31.0 °F 74% 29.99 in 3.0 mi NE 9.2 mph - 0.00 in   Mostly Cloudy
5:53 PM -26.0 °F -48.5 °F -32.1 °F 73% 30.00 in 8.0 mi NE 10.4 mph - N/A   Scattered Clouds
6:53 PM -27.0 °F -52.1 °F -33.0 °F 73% 30.00 in 10.0 mi NE 12.7 mph - N/A   Clear
7:53 PM -27.9 °F -52.1 °F -33.0 °F 77% 30.00 in 7.0 mi NE 11.5 mph - N/A   Clear
8:53 PM -27.9 °F -50.9 °F -34.1 °F 73% 30.01 in 7.0 mi NE 10.4 mph - N/A   Scattered Clouds
9:53 PM -27.0 °F -51.0 °F -33.0 °F 73% 30.01 in 7.0 mi NE 11.5 mph - N/A   Overcast
10:50 PM -25.6 °F -46.8 °F -32.8 °F 69% 30.00 in 9.0 mi ENE 9.2 mph - N/A   Overcast
10:53 PM -26.0 °F -47.2 °F -32.1 °F 73% 30.01 in 9.0 mi NE 9.2 mph - N/A   Overcast
11:53 PM -25.1 °F -44.7 °F -31.0 °F 74% 30.02 in 10.0 mi ENE 8.1 mph - N/A   Overcast